Time,TemperatureF,DewpointF,PressureIn,WindDirection,WindDirectionDegrees,WindSpeedMPH,WindSpeedGustMPH,Humidity,HourlyPrecipIn,Conditions,Clouds,dailyrainin,SoftwareType,DateUTC
2013-03-14 00:00:00,43.1,21.6,30.22,WNW,297,0.0,8.0,42,0.00,,OVC120,0.00,VWS V14.01,2013-03-14 06:00:00,
2013-03-14 00:03:00,42.2,21.3,30.23,NNW,333,2.0,2.0,43,0.00,,CLR,0.00,VWS V14.01,2013-03-14 06:03:00,
2013-03-14 00:08:00,41.0,21.8,30.23,NNE,32,0.0,3.0,46,0.00,,CLR,0.00,VWS V14.01,2013-03-14 06:08:00,
2013-03-14 00:13:00,39.0,22.9,30.23,NNW,340,3.0,8.0,52,0.00,,CLR,0.00,VWS V14.01,2013-03-14 06:13:00,
2013-03-14 00:18:00,37.8,23.1,30.23,NNW,348,2.0,8.0,55,0.00,,CLR,0.00,VWS V14.01,2013-03-14 06:18:00,
2013-03-14 00:23:00,37.2,23.0,30.23,ESE,117,0.0,8.0,56,0.00,,CLR,0.00,VWS V14.01,2013-03-14 06:23:00,
2013-03-14 00:28:00,36.6,22.8,30.23,South,174,2.0,8.0,57,0.00,,CLR,0.00,VWS V14.01,2013-03-14 06:28:00,
2013-03-14 00:30:00,36.5,22.7,30.23,South,173,2.0,8.0,57,0.00,,OVC120,0.00,VWS V14.01,2013-03-14 06:30:00,
2013-03-14 00:33:00,36.3,23.0,30.23,West,260,2.0,2.0,58,0.00,,CLR,0.00,VWS V14.01,2013-03-14 06:33:00,
2013-03-14 00:38:00,36.1,22.8,30.23,SSW,198,2.0,3.0,58,0.00,,CLR,0.00,VWS V14.01,2013-03-14 06:38:00,
2013-03-14 00:43:00,36.1,22.4,30.23,SE,129,2.0,3.0,57,0.00,,CLR,0.00,VWS V14.01,2013-03-14 06:43:00,
2013-03-14 00:48:00,35.8,22.1,30.23,SE,127,5.0,5.0,57,0.00,,CLR,0.00,VWS V14.01,2013-03-14 06:48:00,
2013-03-14 00:53:00,35.9,22.2,30.22,SE,126,3.0,6.0,57,0.00,,CLR,0.00,VWS V14.01,2013-03-14 06:53:00,
2013-03-14 00:59:00,36.5,21.9,30.22,East,86,4.0,6.0,55,0.00,,CLR,0.00,VWS V14.01,2013-03-14 06:59:00,
2013-03-14 01:00:00,36.8,21.3,30.22,ESE,108,3.0,6.0,53,0.00,,OVC120,0.00,VWS V14.01,2013-03-14 07:00:00,
2013-03-14 01:04:00,39.0,21.0,30.22,ESE,120,1.0,4.0,48,0.00,,CLR,0.00,VWS V14.01,2013-03-14 07:04:00,
2013-03-14 01:09:00,39.6,20.5,30.22,East,99,0.0,4.0,46,0.00,,CLR,0.00,VWS V14.01,2013-03-14 07:09:00,
2013-03-14 01:14:00,39.7,20.6,30.22,SE,128,0.0,4.0,46,0.00,,CLR,0.00,VWS V14.01,2013-03-14 07:14:00,
2013-03-14 01:19:00,40.5,20.3,30.22,West,270,0.0,4.0,44,0.00,,CLR,0.00,VWS V14.01,2013-03-14 07:19:00,
2013-03-14 01:24:00,39.5,21.5,30.23,NE,39,0.0,4.0,48,0.00,,CLR,0.00,VWS V14.01,2013-03-14 07:24:00,
2013-03-14 01:29:00,36.4,21.8,30.23,NE,50,2.0,4.0,55,0.00,,CLR,0.00,VWS V14.01,2013-03-14 07:29:00,
2013-03-14 01:30:00,36.2,21.6,30.23,NE,50,2.0,4.0,55,0.00,,OVC120,0.00,VWS V14.01,2013-03-14 07:30:00,
2013-03-14 01:34:00,35.0,22.1,30.23,East,79,1.0,4.0,59,0.00,,CLR,0.00,VWS V14.01,2013-03-14 07:34:00,
2013-03-14 01:39:00,34.8,22.0,30.23,East,79,0.0,4.0,59,0.00,,CLR,0.00,VWS V14.01,2013-03-14 07:39:00,
2013-03-14 01:45:00,35.0,22.1,30.24,East,82,0.0,4.0,59,0.00,,CLR,0.00,VWS V14.01,2013-03-14 07:45:00,
2013-03-14 01:50:00,35.4,21.7,30.24,East,81,0.0,4.0,57,0.00,,CLR,0.00,VWS V14.01,2013-03-14 07:50:00,
2013-03-14 01:55:00,35.3,21.6,30.24,East,96,2.0,4.0,57,0.00,,CLR,0.00,VWS V14.01,2013-03-14 07:55:00,
2013-03-14 02:00:00,35.5,21.8,30.24,East,86,2.0,3.0,57,0.00,,CLR,0.00,VWS V14.01,2013-03-14 08:00:00,
2013-03-14 02:05:00,35.7,21.6,30.24,ESE,121,1.0,3.0,56,0.00,,CLR,0.00,VWS V14.01,2013-03-14 08:05:00,
2013-03-14 02:10:00,36.1,21.5,30.24,East,97,2.0,3.0,55,0.00,,CLR,0.00,VWS V14.01,2013-03-14 08:10:00,
2013-03-14 02:15:00,36.3,21.3,30.24,East,86,0.0,3.0,54,0.00,,CLR,0.00,VWS V14.01,2013-03-14 08:15:00,
2013-03-14 02:20:00,36.3,21.3,30.24,East,86,0.0,3.0,54,0.00,,CLR,0.00,VWS V14.01,2013-03-14 08:20:00,
2013-03-14 02:25:00,36.1,21.1,30.25,East,86,0.0,3.0,54,0.00,,CLR,0.00,VWS V14.01,2013-03-14 08:25:00,
2013-03-14 02:30:00,35.8,21.2,30.25,East,86,0.0,3.0,55,0.00,,OVC120,0.00,VWS V14.01,2013-03-14 08:30:00,
2013-03-14 02:31:00,35.7,21.1,30.25,East,86,0.0,0.0,55,0.00,,CLR,0.00,VWS V14.01,2013-03-14 08:31:00,
2013-03-14 02:36:00,35.3,20.8,30.24,ESE,103,0.0,0.0,55,0.00,,CLR,0.00,VWS V14.01,2013-03-14 08:36:00,
2013-03-14 02:41:00,35.5,21.0,30.24,East,82,2.0,3.0,55,0.00,,CLR,0.00,VWS V14.01,2013-03-14 08:41:00,
2013-03-14 02:46:00,36.6,21.1,30.24,East,84,0.0,3.0,53,0.00,,CLR,0.00,VWS V14.01,2013-03-14 08:46:00,
2013-03-14 02:52:00,36.6,21.1,30.24,SE,127,0.0,3.0,53,0.00,,CLR,0.00,VWS V14.01,2013-03-14 08:52:00,
2013-03-14 02:57:00,37.1,21.1,30.24,East,82,1.0,3.0,52,0.00,,CLR,0.00,VWS V14.01,2013-03-14 08:57:00,
2013-03-14 03:00:00,37.4,20.9,30.24,East,79,0.0,3.0,51,0.00,,OVC120,0.00,VWS V14.01,2013-03-14 09:00:00,
2013-03-14 03:02:00,37.2,20.8,30.24,SSW,207,0.0,1.0,51,0.00,,CLR,0.00,VWS V14.01,2013-03-14 09:02:00,
2013-03-14 03:07:00,36.0,21.0,30.24,SE,133,0.0,1.0,54,0.00,,CLR,0.00,VWS V14.01,2013-03-14 09:07:00,
2013-03-14 03:12:00,35.8,20.8,30.23,East,98,2.0,4.0,54,0.00,,CLR,0.00,VWS V14.01,2013-03-14 09:12:00,
2013-03-14 03:17:00,37.0,21.5,30.23,ESE,107,0.0,4.0,53,0.00,,CLR,0.00,VWS V14.01,2013-03-14 09:17:00,
2013-03-14 03:22:00,35.9,20.9,30.23,SW,217,0.0,4.0,54,0.00,,CLR,0.00,VWS V14.01,2013-03-14 09:22:00,
2013-03-14 03:27:00,35.2,21.1,30.23,WSW,253,0.0,4.0,56,0.00,,CLR,0.00,VWS V14.01,2013-03-14 09:27:00,
2013-03-14 03:30:00,34.9,20.8,30.23,WSW,253,0.0,4.0,56,0.00,,OVC120,0.00,VWS V14.01,2013-03-14 09:30:00,
2013-03-14 03:32:00,34.8,21.1,30.23,ENE,58,0.0,2.0,57,0.00,,CLR,0.00,VWS V14.01,2013-03-14 09:32:00,
2013-03-14 03:37:00,34.7,21.5,30.23,ESE,121,1.0,2.0,58,0.00,,CLR,0.00,VWS V14.01,2013-03-14 09:37:00,
2013-03-14 03:43:00,35.1,21.4,30.23,ENE,72,0.0,2.0,57,0.00,,CLR,0.00,VWS V14.01,2013-03-14 09:43:00,
2013-03-14 03:48:00,35.2,21.5,30.23,ENE,72,0.0,2.0,57,0.00,,CLR,0.00,VWS V14.01,2013-03-14 09:48:00,
2013-03-14 03:53:00,34.1,21.3,30.24,SW,222,3.0,3.0,59,0.00,,CLR,0.00,VWS V14.01,2013-03-14 09:53:00,
2013-03-14 03:58:00,33.7,21.3,30.24,SSW,198,2.0,3.0,60,0.00,,CLR,0.00,VWS V14.01,2013-03-14 09:58:00,
2013-03-14 04:00:00,33.6,21.2,30.24,SSW,203,0.0,3.0,60,0.00,,OVC120,0.00,VWS V14.01,2013-03-14 10:00:00,
2013-03-14 04:03:00,33.4,21.0,30.24,SSW,205,1.0,2.0,60,0.00,,CLR,0.00,VWS V14.01,2013-03-14 10:03:00,
2013-03-14 04:08:00,33.2,21.2,30.25,SSW,212,0.0,2.0,61,0.00,,CLR,0.00,VWS V14.01,2013-03-14 10:08:00,
2013-03-14 04:13:00,33.2,21.2,30.25,SSW,211,2.0,2.0,61,0.00,,CLR,0.00,VWS V14.01,2013-03-14 10:13:00,
2013-03-14 04:18:00,33.4,21.0,30.25,SSE,167,1.0,3.0,60,0.00,,CLR,0.00,VWS V14.01,2013-03-14 10:18:00,
2013-03-14 04:23:00,33.6,21.2,30.25,SW,217,1.0,3.0,60,0.00,,CLR,0.00,VWS V14.01,2013-03-14 10:23:00,
2013-03-14 04:28:00,33.4,21.0,30.26,SE,141,1.0,3.0,60,0.00,,CLR,0.00,VWS V14.01,2013-03-14 10:28:00,
2013-03-14 04:30:00,33.5,21.1,30.26,SE,141,1.0,3.0,60,0.00,,OVC120,0.00,VWS V14.01,2013-03-14 10:30:00,
2013-03-14 04:33:00,33.8,21.0,30.25,ESE,121,3.0,3.0,59,0.00,,CLR,0.00,VWS V14.01,2013-03-14 10:33:00,
2013-03-14 04:39:00,34.1,21.3,30.25,ESE,111,2.0,4.0,59,0.00,,CLR,0.00,VWS V14.01,2013-03-14 10:39:00,
2013-03-14 04:44:00,33.9,21.1,30.25,East,98,4.0,4.0,59,0.00,,CLR,0.00,VWS V14.01,2013-03-14 10:44:00,
2013-03-14 04:49:00,34.2,21.0,30.25,South,170,2.0,4.0,58,0.00,,CLR,0.00,VWS V14.01,2013-03-14 10:49:00,
2013-03-14 04:54:00,35.0,21.3,30.25,South,172,0.0,4.0,57,0.00,,CLR,0.00,VWS V14.01,2013-03-14 10:54:00,
2013-03-14 04:59:00,35.6,21.0,30.24,NW,323,3.0,4.0,55,0.00,,CLR,0.00,VWS V14.01,2013-03-14 10:59:00,
2013-03-14 05:00:00,35.6,21.0,30.24,NW,323,3.0,4.0,55,0.00,,OVC120,0.00,VWS V14.01,2013-03-14 11:00:00,
2013-03-14 05:04:00,34.7,21.0,30.25,NNW,332,4.0,6.0,57,0.00,,CLR,0.00,VWS V14.01,2013-03-14 11:04:00,
2013-03-14 05:09:00,33.1,21.1,30.25,NNW,335,0.0,6.0,61,0.00,,CLR,0.00,VWS V14.01,2013-03-14 11:09:00,
2013-03-14 05:14:00,32.2,21.0,30.25,SE,126,2.0,6.0,63,0.00,,CLR,0.00,VWS V14.01,2013-03-14 11:14:00,
2013-03-14 05:19:00,32.9,21.3,30.25,ESE,108,2.0,6.0,62,0.00,,CLR,0.00,VWS V14.01,2013-03-14 11:19:00,
2013-03-14 05:24:00,33.6,21.2,30.25,ESE,114,0.0,6.0,60,0.00,,CLR,0.00,VWS V14.01,2013-03-14 11:24:00,
2013-03-14 05:29:00,33.6,20.8,30.25,SW,215,3.0,3.0,59,0.00,,CLR,0.00,VWS V14.01,2013-03-14 11:29:00,
2013-03-14 05:30:00,33.7,20.9,30.25,SW,217,3.0,6.0,59,0.00,,OVC120,0.00,VWS V14.01,2013-03-14 11:30:00,
2013-03-14 05:34:00,33.1,20.7,30.25,SW,229,2.0,5.0,60,0.00,,CLR,0.00,VWS V14.01,2013-03-14 11:34:00,
2013-03-14 05:39:00,32.7,21.1,30.25,SW,233,1.0,5.0,62,0.00,,CLR,0.00,VWS V14.01,2013-03-14 11:39:00,
2013-03-14 05:44:00,31.9,20.8,30.26,SW,218,2.0,5.0,63,0.00,,CLR,0.00,VWS V14.01,2013-03-14 11:44:00,
2013-03-14 05:49:00,31.6,20.8,30.26,SE,132,2.0,5.0,64,0.00,,CLR,0.00,VWS V14.01,2013-03-14 11:49:00,
2013-03-14 05:55:00,31.9,20.8,30.26,ESE,119,4.0,5.0,63,0.00,,CLR,0.00,VWS V14.01,2013-03-14 11:55:00,
2013-03-14 06:00:00,32.7,21.1,30.27,ESE,121,1.0,3.0,62,0.00,,CLR,0.00,VWS V14.01,2013-03-14 12:00:00,
2013-03-14 06:05:00,31.9,20.8,30.27,ENE,75,0.0,3.0,63,0.00,,CLR,0.00,VWS V14.01,2013-03-14 12:05:00,
2013-03-14 06:10:00,31.4,20.6,30.27,SE,124,2.0,4.0,64,0.00,,CLR,0.00,VWS V14.01,2013-03-14 12:10:00,
2013-03-14 06:15:00,31.8,20.7,30.27,ESE,122,3.0,4.0,63,0.00,,CLR,0.00,VWS V14.01,2013-03-14 12:15:00,
2013-03-14 06:20:00,32.3,20.8,30.27,East,83,0.0,4.0,62,0.00,,CLR,0.00,VWS V14.01,2013-03-14 12:20:00,
2013-03-14 06:25:00,32.2,20.7,30.27,ESE,105,0.0,4.0,62,0.00,,CLR,0.00,VWS V14.01,2013-03-14 12:25:00,
2013-03-14 06:30:00,32.3,20.4,30.28,ESE,105,0.0,0.0,61,0.00,,CLR,0.00,VWS V14.01,2013-03-14 12:30:00,
2013-03-14 06:35:00,32.0,20.1,30.28,SSW,198,4.0,4.0,61,0.00,,CLR,0.00,VWS V14.01,2013-03-14 12:35:00,
2013-03-14 06:40:00,31.9,20.8,30.29,SW,214,0.0,4.0,63,0.00,,CLR,0.00,VWS V14.01,2013-03-14 12:40:00,
2013-03-14 06:45:00,31.3,20.2,30.28,South,173,0.0,4.0,63,0.00,,CLR,0.00,VWS V14.01,2013-03-14 12:45:00,
2013-03-14 06:50:00,30.8,20.1,30.28,SE,139,2.0,4.0,64,0.00,,CLR,0.00,VWS V14.01,2013-03-14 12:50:00,
2013-03-14 06:55:00,30.5,20.5,30.28,ESE,122,4.0,4.0,66,0.00,,CLR,0.00,VWS V14.01,2013-03-14 12:55:00,
2013-03-14 07:00:00,31.1,20.7,30.28,SE,129,2.0,3.0,65,0.00,,CLR,0.00,VWS V14.01,2013-03-14 13:00:00,
2013-03-14 07:06:00,31.4,20.3,30.28,SE,129,0.0,3.0,63,0.00,,CLR,0.00,VWS V14.01,2013-03-14 13:06:00,
2013-03-14 07:12:00,31.9,20.0,30.28,SE,127,2.0,3.0,61,0.00,,CLR,0.00,VWS V14.01,2013-03-14 13:12:00,
2013-03-14 07:17:00,32.1,19.8,30.28,SE,136,1.0,3.0,60,0.00,,CLR,0.00,VWS V14.01,2013-03-14 13:17:00,
2013-03-14 07:22:00,31.8,19.9,30.28,North,360,1.0,3.0,61,0.00,,CLR,0.00,VWS V14.01,2013-03-14 13:22:00,
2013-03-14 07:27:00,30.3,20.0,30.28,East,94,0.0,3.0,65,0.00,,CLR,0.00,VWS V14.01,2013-03-14 13:27:00,
2013-03-14 07:30:00,30.1,19.8,30.28,East,93,0.0,3.0,65,0.00,,OVC120,0.00,VWS V14.01,2013-03-14 13:30:00,
2013-03-14 07:32:00,30.2,20.2,30.28,East,93,1.0,1.0,66,0.00,,CLR,0.00,VWS V14.01,2013-03-14 13:32:00,
2013-03-14 07:37:00,31.2,20.5,30.28,SE,129,1.0,2.0,64,0.00,,CLR,0.00,VWS V14.01,2013-03-14 13:37:00,
2013-03-14 07:42:00,32.1,20.2,30.29,SE,146,3.0,3.0,61,0.00,,CLR,0.00,VWS V14.01,2013-03-14 13:42:00,
2013-03-14 07:47:00,32.3,20.4,30.29,SSE,163,2.0,3.0,61,0.00,,CLR,0.00,VWS V14.01,2013-03-14 13:47:00,
2013-03-14 07:52:00,32.8,20.5,30.29,SE,131,2.0,3.0,60,0.00,,CLR,0.00,VWS V14.01,2013-03-14 13:52:00,
2013-03-14 07:57:00,32.8,20.1,30.29,SE,125,3.0,3.0,59,0.00,,CLR,0.00,VWS V14.01,2013-03-14 13:57:00,
2013-03-14 08:00:00,33.4,20.2,30.29,ESE,121,2.0,3.0,58,0.00,,OVC120,0.00,VWS V14.01,2013-03-14 14:00:00,
2013-03-14 08:02:00,34.5,20.0,30.29,SE,143,1.0,7.0,55,0.00,,CLR,0.00,VWS V14.01,2013-03-14 14:02:00,
2013-03-14 08:08:00,34.4,20.3,30.29,ENE,67,3.0,7.0,56,0.00,,CLR,0.00,VWS V14.01,2013-03-14 14:08:00,
2013-03-14 08:13:00,32.7,21.1,30.30,NE,53,3.0,7.0,62,0.00,,CLR,0.00,VWS V14.01,2013-03-14 14:13:00,
2013-03-14 08:18:00,32.8,21.6,30.30,East,96,1.0,7.0,63,0.00,,CLR,0.00,VWS V14.01,2013-03-14 14:18:00,
2013-03-14 08:23:00,34.0,22.7,30.30,ESE,114,0.0,7.0,63,0.00,,CLR,0.00,VWS V14.01,2013-03-14 14:23:00,
2013-03-14 08:28:00,35.5,22.6,30.30,South,179,0.0,7.0,59,0.00,,CLR,0.00,VWS V14.01,2013-03-14 14:28:00,
2013-03-14 08:30:00,35.8,22.5,30.30,South,179,0.0,7.0,58,0.00,,OVC120,0.00,VWS V14.01,2013-03-14 14:30:00,
2013-03-14 08:33:00,37.0,22.4,30.30,South,179,0.0,1.0,55,0.00,,CLR,0.00,VWS V14.01,2013-03-14 14:33:00,
2013-03-14 08:38:00,38.1,22.0,30.31,SW,225,0.0,2.0,52,0.00,,CLR,0.00,VWS V14.01,2013-03-14 14:38:00,
2013-03-14 08:43:00,38.3,22.2,30.31,SW,222,1.0,3.0,52,0.00,,CLR,0.00,VWS V14.01,2013-03-14 14:43:00,
2013-03-14 08:48:00,38.7,22.1,30.31,West,270,2.0,3.0,51,0.00,,CLR,0.00,VWS V14.01,2013-03-14 14:48:00,
2013-03-14 08:54:00,38.9,21.9,30.31,WSW,256,3.0,4.0,50,0.00,,CLR,0.00,VWS V14.01,2013-03-14 14:54:00,
2013-03-14 08:59:00,39.0,22.9,30.31,WNW,297,2.0,4.0,52,0.00,,CLR,0.00,VWS V14.01,2013-03-14 14:59:00,
2013-03-14 09:00:00,39.0,23.3,30.31,WNW,283,2.0,4.0,53,0.00,,OVC120,0.00,VWS V14.01,2013-03-14 15:00:00,
2013-03-14 09:04:00,39.2,23.5,30.31,West,270,1.0,3.0,53,0.00,,CLR,0.00,VWS V14.01,2013-03-14 15:04:00,
2013-03-14 09:09:00,39.6,23.9,30.32,NW,314,2.0,3.0,53,0.00,,CLR,0.00,VWS V14.01,2013-03-14 15:09:00,
2013-03-14 09:14:00,40.2,24.5,30.32,West,278,0.0,3.0,53,0.00,,CLR,0.00,VWS V14.01,2013-03-14 15:14:00,
2013-03-14 09:19:00,41.2,23.5,30.32,South,187,2.0,3.0,49,0.00,,CLR,0.00,VWS V14.01,2013-03-14 15:19:00,
2013-03-14 09:24:00,42.5,23.7,30.31,SSE,151,0.0,3.0,47,0.00,,CLR,0.00,VWS V14.01,2013-03-14 15:24:00,
2013-03-14 09:29:00,44.0,22.4,30.31,West,272,0.0,0.0,42,0.00,,CLR,0.00,VWS V14.01,2013-03-14 15:29:00,
2013-03-14 09:30:00,44.0,22.4,30.31,SSE,164,0.0,3.0,42,0.00,,OVC120,0.00,VWS V14.01,2013-03-14 15:30:00,
2013-03-14 09:34:00,43.6,22.0,30.32,WNW,287,0.0,0.0,42,0.00,,CLR,0.00,VWS V14.01,2013-03-14 15:34:00,
2013-03-14 09:39:00,43.6,23.1,30.31,WNW,299,0.0,0.0,44,0.00,,CLR,0.00,VWS V14.01,2013-03-14 15:39:00,
2013-03-14 09:45:00,43.6,23.1,30.32,West,266,0.0,3.0,44,0.00,,CLR,0.00,VWS V14.01,2013-03-14 15:45:00,
2013-03-14 09:50:00,43.9,23.4,30.32,WNW,303,0.0,4.0,44,0.00,,CLR,0.00,VWS V14.01,2013-03-14 15:50:00,
2013-03-14 09:55:00,44.5,24.0,30.31,West,276,3.0,4.0,44,0.00,,CLR,0.00,VWS V14.01,2013-03-14 15:55:00,
2013-03-14 10:00:00,44.9,23.2,30.31,WSW,239,0.0,1.0,42,0.00,,CLR,0.00,VWS V14.01,2013-03-14 16:00:00,
2013-03-14 10:05:00,45.5,22.6,30.31,WSW,255,4.0,6.0,40,0.00,,CLR,0.00,VWS V14.01,2013-03-14 16:05:00,
2013-03-14 10:10:00,45.7,22.8,30.31,West,266,3.0,6.0,40,0.00,,CLR,0.00,VWS V14.01,2013-03-14 16:10:00,
2013-03-14 10:15:00,46.0,23.6,30.31,WNW,302,1.0,6.0,41,0.00,,CLR,0.00,VWS V14.01,2013-03-14 16:15:00,
2013-03-14 10:20:00,46.2,23.2,30.31,WNW,294,3.0,6.0,40,0.00,,CLR,0.00,VWS V14.01,2013-03-14 16:20:00,
2013-03-14 10:25:00,46.4,22.8,30.31,WSW,249,1.0,6.0,39,0.00,,CLR,0.00,VWS V14.01,2013-03-14 16:25:00,
2013-03-14 10:30:00,46.8,21.9,30.30,WNW,297,2.0,4.0,37,0.00,,CLR,0.00,VWS V14.01,2013-03-14 16:30:00,
2013-03-14 10:35:00,47.2,22.3,30.30,South,190,0.0,4.0,37,0.00,,CLR,0.00,VWS V14.01,2013-03-14 16:35:00,
2013-03-14 10:40:00,47.9,22.9,30.30,WNW,290,1.0,5.0,37,0.00,,CLR,0.00,VWS V14.01,2013-03-14 16:40:00,
2013-03-14 10:45:00,48.7,23.0,30.30,WSW,240,0.0,6.0,36,0.00,,CLR,0.00,VWS V14.01,2013-03-14 16:45:00,
2013-03-14 10:50:00,48.9,23.8,30.29,WSW,253,3.0,6.0,37,0.00,,CLR,0.00,VWS V14.01,2013-03-14 16:50:00,
2013-03-14 10:56:00,49.1,22.6,30.29,WSW,248,5.0,6.0,35,0.00,,CLR,0.00,VWS V14.01,2013-03-14 16:56:00,
2013-03-14 11:00:00,49.2,22.7,30.29,WSW,242,4.0,6.0,35,0.00,,OVC120,0.00,VWS V14.01,2013-03-14 17:00:00,
2013-03-14 11:01:00,49.3,22.8,30.29,West,277,5.0,8.0,35,0.00,,CLR,0.00,VWS V14.01,2013-03-14 17:01:00,
2013-03-14 11:06:00,50.0,22.0,30.29,NW,312,5.0,8.0,33,0.00,,CLR,0.00,VWS V14.01,2013-03-14 17:06:00,
2013-03-14 11:11:00,50.1,22.1,30.29,WNW,284,3.0,8.0,33,0.00,,CLR,0.00,VWS V14.01,2013-03-14 17:11:00,
2013-03-14 11:16:00,50.4,20.9,30.29,WNW,284,4.0,8.0,31,0.00,,CLR,0.00,VWS V14.01,2013-03-14 17:16:00,
2013-03-14 11:22:00,51.1,21.5,30.29,WSW,250,0.0,8.0,31,0.00,,CLR,0.00,VWS V14.01,2013-03-14 17:22:00,
2013-03-14 11:27:00,51.9,21.5,30.29,South,184,1.0,8.0,30,0.00,,CLR,0.00,VWS V14.01,2013-03-14 17:27:00,
2013-03-14 11:30:00,52.4,21.1,30.29,SSE,153,0.0,8.0,29,0.00,,OVC120,0.00,VWS V14.01,2013-03-14 17:30:00,
2013-03-14 11:34:00,53.0,20.8,30.29,West,273,2.0,4.0,28,0.00,,CLR,0.00,VWS V14.01,2013-03-14 17:34:00,
2013-03-14 11:39:00,53.2,20.1,30.28,WNW,290,2.0,4.0,27,0.00,,CLR,0.00,VWS V14.01,2013-03-14 17:39:00,
2013-03-14 11:44:00,53.4,20.3,30.28,WSW,246,0.0,4.0,27,0.00,,CLR,0.00,VWS V14.01,2013-03-14 17:44:00,
2013-03-14 11:49:00,54.1,20.0,30.28,NW,312,0.0,5.0,26,0.00,,CLR,0.00,VWS V14.01,2013-03-14 17:49:00,
2013-03-14 11:54:00,54.2,21.0,30.28,WSW,252,2.0,6.0,27,0.00,,CLR,0.00,VWS V14.01,2013-03-14 17:54:00,
2013-03-14 11:59:00,54.8,21.5,30.28,WNW,287,3.0,6.0,27,0.00,,CLR,0.00,VWS V14.01,2013-03-14 17:59:00,
2013-03-14 12:00:00,54.8,21.5,30.28,WNW,287,3.0,6.0,27,0.00,,OVC120,0.00,VWS V14.01,2013-03-14 18:00:00,
2013-03-14 12:04:00,55.3,21.0,30.28,SSE,166,0.0,4.0,26,0.00,,CLR,0.00,VWS V14.01,2013-03-14 18:04:00,
2013-03-14 12:09:00,56.0,22.5,30.27,South,173,3.0,7.0,27,0.00,,CLR,0.00,VWS V14.01,2013-03-14 18:09:00,
2013-03-14 12:15:00,57.0,20.6,30.27,NW,326,5.0,8.0,24,0.00,,CLR,0.00,VWS V14.01,2013-03-14 18:15:00,
2013-03-14 12:20:00,57.5,20.0,30.26,NE,51,1.0,8.0,23,0.00,,CLR,0.00,VWS V14.01,2013-03-14 18:20:00,
2013-03-14 12:25:00,58.3,20.7,30.26,WNW,283,3.0,8.0,23,0.00,,CLR,0.00,VWS V14.01,2013-03-14 18:25:00,
2013-03-14 12:30:00,59.0,20.2,30.25,NW,305,10.0,14.0,22,0.00,,CLR,0.00,VWS V14.01,2013-03-14 18:30:00,
2013-03-14 12:35:00,58.4,19.7,30.25,NE,41,4.0,14.0,22,0.00,,CLR,0.00,VWS V14.01,2013-03-14 18:35:00,
2013-03-14 12:40:00,59.1,20.3,30.25,NNW,338,1.0,14.0,22,0.00,,CLR,0.00,VWS V14.01,2013-03-14 18:40:00,
2013-03-14 12:45:00,59.2,19.3,30.25,West,281,7.0,14.0,21,0.00,,CLR,0.00,VWS V14.01,2013-03-14 18:45:00,
2013-03-14 12:51:00,59.2,19.3,30.25,NW,306,11.0,14.0,21,0.00,,CLR,0.00,VWS V14.01,2013-03-14 18:51:00,
2013-03-14 12:56:00,59.0,19.1,30.25,NW,304,7.0,14.0,21,0.00,,CLR,0.00,VWS V14.01,2013-03-14 18:56:00,
2013-03-14 13:00:00,59.0,19.1,30.24,NNW,331,10.0,14.0,21,0.00,,OVC120,0.00,VWS V14.01,2013-03-14 19:00:00,
2013-03-14 13:01:00,59.0,18.0,30.24,WNW,297,4.0,10.0,20,0.00,,CLR,0.00,VWS V14.01,2013-03-14 19:01:00,
2013-03-14 13:06:00,59.5,18.4,30.24,WNW,298,3.0,11.0,20,0.00,,CLR,0.00,VWS V14.01,2013-03-14 19:06:00,
2013-03-14 13:11:00,60.0,20.0,30.24,North,349,7.0,11.0,21,0.00,,CLR,0.00,VWS V14.01,2013-03-14 19:11:00,
2013-03-14 13:16:00,60.3,19.1,30.24,WNW,290,5.0,11.0,20,0.00,,CLR,0.00,VWS V14.01,2013-03-14 19:16:00,
2013-03-14 13:21:00,59.5,18.4,30.23,NW,307,2.0,11.0,20,0.00,,CLR,0.00,VWS V14.01,2013-03-14 19:21:00,
2013-03-14 13:27:00,60.5,20.4,30.23,NW,304,5.0,11.0,21,0.00,,CLR,0.00,VWS V14.01,2013-03-14 19:27:00,
2013-03-14 13:30:00,60.8,18.3,30.23,NNW,338,4.0,11.0,19,0.00,,OVC120,0.00,VWS V14.01,2013-03-14 19:30:00,
2013-03-14 13:32:00,60.5,18.1,30.23,WSW,243,6.0,10.0,19,0.00,,CLR,0.00,VWS V14.01,2013-03-14 19:32:00,
2013-03-14 13:37:00,60.6,16.9,30.22,West,278,3.0,10.0,18,0.00,,CLR,0.00,VWS V14.01,2013-03-14 19:37:00,
2013-03-14 13:42:00,60.4,18.0,30.22,NNW,338,5.0,10.0,19,0.00,,CLR,0.00,VWS V14.01,2013-03-14 19:42:00,
2013-03-14 13:47:00,61.0,17.2,30.22,West,262,2.0,10.0,18,0.00,,CLR,0.00,VWS V14.01,2013-03-14 19:47:00,
2013-03-14 13:52:00,61.0,15.9,30.21,ESE,113,0.0,10.0,17,0.00,,CLR,0.00,VWS V14.01,2013-03-14 19:52:00,
2013-03-14 13:57:00,60.9,15.8,30.21,NW,311,1.0,10.0,17,0.00,,CLR,0.00,VWS V14.01,2013-03-14 19:57:00,
2013-03-14 14:00:00,61.0,15.9,30.21,West,278,0.0,10.0,17,0.00,,OVC120,0.00,VWS V14.01,2013-03-14 20:00:00,
2013-03-14 14:02:00,61.5,17.6,30.21,NNW,330,4.0,10.0,18,0.00,,CLR,0.00,VWS V14.01,2013-03-14 20:02:00,
2013-03-14 14:07:00,62.3,17.0,30.20,NW,307,6.0,10.0,17,0.00,,CLR,0.00,VWS V14.01,2013-03-14 20:07:00,
2013-03-14 14:12:00,62.2,16.9,30.20,WNW,298,8.0,10.0,17,0.00,,CLR,0.00,VWS V14.01,2013-03-14 20:12:00,
2013-03-14 14:18:00,62.3,17.0,30.19,NW,306,6.0,10.0,17,0.00,,CLR,0.00,VWS V14.01,2013-03-14 20:18:00,
2013-03-14 14:23:00,62.4,17.0,30.19,WNW,295,6.0,11.0,17,0.00,,CLR,0.00,VWS V14.01,2013-03-14 20:23:00,
2013-03-14 14:28:00,62.2,16.9,30.19,West,264,10.0,14.0,17,0.00,,CLR,0.00,VWS V14.01,2013-03-14 20:28:00,
2013-03-14 14:30:00,62.2,15.5,30.18,West,263,6.0,14.0,16,0.00,,OVC120,0.00,VWS V14.01,2013-03-14 20:30:00,
2013-03-14 14:33:00,62.4,17.0,30.19,NW,324,4.0,10.0,17,0.00,,CLR,0.00,VWS V14.01,2013-03-14 20:33:00,
2013-03-14 14:38:00,62.8,16.0,30.18,West,266,5.0,10.0,16,0.00,,CLR,0.00,VWS V14.01,2013-03-14 20:38:00,
2013-03-14 14:43:00,62.4,15.6,30.18,West,259,7.0,10.0,16,0.00,,CLR,0.00,VWS V14.01,2013-03-14 20:43:00,
2013-03-14 14:48:00,62.4,15.6,30.18,NW,323,7.0,11.0,16,0.00,,CLR,0.00,VWS V14.01,2013-03-14 20:48:00,
2013-03-14 14:53:00,62.5,17.1,30.18,WNW,297,6.0,11.0,17,0.00,,CLR,0.00,VWS V14.01,2013-03-14 20:53:00,
2013-03-14 14:58:00,62.8,16.0,30.17,West,269,6.0,11.0,16,0.00,,CLR,0.00,VWS V14.01,2013-03-14 20:58:00,
2013-03-14 15:00:00,62.9,16.0,30.17,West,264,5.0,11.0,16,0.00,,OVC120,0.00,VWS V14.01,2013-03-14 21:00:00,
2013-03-14 15:03:00,62.8,14.5,30.17,WNW,284,2.0,7.0,15,0.00,,CLR,0.00,VWS V14.01,2013-03-14 21:03:00,
2013-03-14 15:08:00,63.4,16.5,30.17,West,270,8.0,14.0,16,0.00,,CLR,0.00,VWS V14.01,2013-03-14 21:08:00,
2013-03-14 15:13:00,63.1,16.2,30.17,West,266,6.0,14.0,16,0.00,,CLR,0.00,VWS V14.01,2013-03-14 21:13:00,
2013-03-14 15:19:00,62.8,16.0,30.17,WNW,297,4.0,14.0,16,0.00,,CLR,0.00,VWS V14.01,2013-03-14 21:19:00,
2013-03-14 15:24:00,63.0,16.1,30.17,West,278,6.0,14.0,16,0.00,,CLR,0.00,VWS V14.01,2013-03-14 21:24:00,
2013-03-14 15:29:00,63.0,14.6,30.17,NNW,329,2.0,14.0,15,0.00,,CLR,0.00,VWS V14.01,2013-03-14 21:29:00,
2013-03-14 15:30:00,63.0,16.1,30.17,WNW,284,5.0,14.0,16,0.00,,OVC120,0.00,VWS V14.01,2013-03-14 21:30:00,
2013-03-14 15:34:00,63.2,14.8,30.16,WNW,291,4.0,8.0,15,0.00,,CLR,0.00,VWS V14.01,2013-03-14 21:34:00,
2013-03-14 15:39:00,63.8,15.3,30.16,NW,308,4.0,8.0,15,0.00,,CLR,0.00,VWS V14.01,2013-03-14 21:39:00,
2013-03-14 15:44:00,63.9,16.9,30.16,West,281,6.0,15.0,16,0.00,,CLR,0.00,VWS V14.01,2013-03-14 21:44:00,
2013-03-14 15:49:00,64.0,15.4,30.16,WSW,249,9.0,15.0,15,0.00,,CLR,0.00,VWS V14.01,2013-03-14 21:49:00,
2013-03-14 15:54:00,63.9,15.4,30.16,WNW,288,4.0,15.0,15,0.00,,CLR,0.00,VWS V14.01,2013-03-14 21:54:00,
2013-03-14 15:59:00,63.5,13.5,30.16,WNW,283,8.0,15.0,14,0.00,,CLR,0.00,VWS V14.01,2013-03-14 21:59:00,
2013-03-14 16:00:00,63.5,13.5,30.16,West,280,5.0,15.0,14,0.00,,CLR,0.00,VWS V14.01,2013-03-14 22:00:00,
2013-03-14 16:04:00,64.2,14.0,30.15,WNW,294,10.0,11.0,14,0.00,,CLR,0.00,VWS V14.01,2013-03-14 22:04:00,
2013-03-14 16:09:00,64.3,14.1,30.15,NW,308,6.0,11.0,14,0.00,,CLR,0.00,VWS V14.01,2013-03-14 22:09:00,
2013-03-14 16:14:00,63.7,13.6,30.15,NW,308,6.0,13.0,14,0.00,,CLR,0.00,VWS V14.01,2013-03-14 22:14:00,
2013-03-14 16:19:00,63.8,16.8,30.15,NW,308,5.0,13.0,16,0.00,,CLR,0.00,VWS V14.01,2013-03-14 22:19:00,
2013-03-14 16:24:00,63.6,15.1,30.15,NW,312,2.0,13.0,15,0.00,,CLR,0.00,VWS V14.01,2013-03-14 22:24:00,
2013-03-14 16:29:00,63.5,15.1,30.15,West,267,8.0,9.0,15,0.00,,CLR,0.00,VWS V14.01,2013-03-14 22:29:00,
2013-03-14 16:30:00,63.5,15.1,30.15,West,275,9.0,13.0,15,0.00,,OVC120,0.00,VWS V14.01,2013-03-14 22:30:00,
2013-03-14 16:35:00,63.8,15.3,30.15,West,270,10.0,11.0,15,0.00,,CLR,0.00,VWS V14.01,2013-03-14 22:35:00,
2013-03-14 16:40:00,63.5,13.5,30.15,WSW,245,3.0,11.0,14,0.00,,CLR,0.00,VWS V14.01,2013-03-14 22:40:00,
2013-03-14 16:45:00,63.4,15.0,30.15,WNW,301,1.0,11.0,15,0.00,,CLR,0.00,VWS V14.01,2013-03-14 22:45:00,
2013-03-14 16:50:00,63.7,13.6,30.15,West,276,4.0,11.0,14,0.00,,CLR,0.00,VWS V14.01,2013-03-14 22:50:00,
2013-03-14 16:55:00,63.9,15.4,30.15,NW,316,6.0,11.0,15,0.00,,CLR,0.00,VWS V14.01,2013-03-14 22:55:00,
2013-03-14 17:00:00,63.5,15.1,30.15,NE,41,2.0,4.0,15,0.00,,CLR,0.00,VWS V14.01,2013-03-14 23:00:00,
2013-03-14 17:05:00,64.3,17.2,30.15,West,278,6.0,7.0,16,0.00,,CLR,0.00,VWS V14.01,2013-03-14 23:05:00,
2013-03-14 17:10:00,64.1,17.0,30.14,SW,228,2.0,9.0,16,0.00,,CLR,0.00,VWS V14.01,2013-03-14 23:10:00,
2013-03-14 17:15:00,64.2,15.6,30.14,NW,326,3.0,9.0,15,0.00,,CLR,0.00,VWS V14.01,2013-03-14 23:15:00,
2013-03-14 17:20:00,64.0,15.4,30.14,WNW,293,1.0,9.0,15,0.00,,CLR,0.00,VWS V14.01,2013-03-14 23:20:00,
2013-03-14 17:25:00,63.8,15.3,30.14,SW,236,3.0,9.0,15,0.00,,CLR,0.00,VWS V14.01,2013-03-14 23:25:00,
2013-03-14 17:30:00,63.9,13.8,30.13,NW,304,0.0,9.0,14,0.00,,OVC120,0.00,VWS V14.01,2013-03-14 23:30:00,
2013-03-14 17:31:00,64.0,13.9,30.13,NW,304,0.0,0.0,14,0.00,,CLR,0.00,VWS V14.01,2013-03-14 23:31:00,
2013-03-14 17:36:00,64.4,15.8,30.13,NW,309,0.0,1.0,15,0.00,,CLR,0.00,VWS V14.01,2013-03-14 23:36:00,
2013-03-14 17:42:00,65.0,16.3,30.13,SW,225,1.0,5.0,15,0.00,,CLR,0.00,VWS V14.01,2013-03-14 23:42:00,
2013-03-14 17:47:00,64.8,16.1,30.13,NW,315,4.0,11.0,15,0.00,,CLR,0.00,VWS V14.01,2013-03-14 23:47:00,
2013-03-14 17:52:00,64.6,14.4,30.13,NW,314,0.0,11.0,14,0.00,,CLR,0.00,VWS V14.01,2013-03-14 23:52:00,
2013-03-14 17:57:00,64.6,14.4,30.12,West,269,1.0,11.0,14,0.00,,CLR,0.00,VWS V14.01,2013-03-14 23:57:00,
2013-03-14 18:00:00,64.6,14.4,30.13,West,271,1.0,11.0,14,0.00,,OVC120,0.00,VWS V14.01,2013-03-15 00:00:00,
2013-03-14 18:02:00,64.7,14.4,30.12,WNW,295,0.0,2.0,14,0.00,,CLR,0.00,VWS V14.01,2013-03-15 00:02:00,
2013-03-14 18:07:00,64.3,15.7,30.12,South,172,1.0,3.0,15,0.00,,CLR,0.00,VWS V14.01,2013-03-15 00:07:00,
2013-03-14 18:12:00,64.7,14.4,30.12,West,266,2.0,3.0,14,0.00,,CLR,0.00,VWS V14.01,2013-03-15 00:12:00,
2013-03-14 18:17:00,64.9,14.6,30.12,WNW,293,0.0,3.0,14,0.00,,CLR,0.00,VWS V14.01,2013-03-15 00:17:00,
2013-03-14 18:23:00,64.7,16.0,30.12,NW,315,0.0,3.0,15,0.00,,CLR,0.00,VWS V14.01,2013-03-15 00:23:00,
2013-03-14 18:28:00,64.8,16.1,30.12,NW,320,1.0,3.0,15,0.00,,CLR,0.00,VWS V14.01,2013-03-15 00:28:00,
2013-03-14 18:30:00,64.7,16.0,30.12,NNW,330,0.0,3.0,15,0.00,,CLR,0.00,VWS V14.01,2013-03-15 00:30:00,
2013-03-14 18:33:00,64.9,17.7,30.12,West,278,1.0,1.0,16,0.00,,CLR,0.00,VWS V14.01,2013-03-15 00:33:00,
2013-03-14 18:38:00,64.3,17.2,30.12,West,280,1.0,3.0,16,0.00,,CLR,0.00,VWS V14.01,2013-03-15 00:38:00,
2013-03-14 18:43:00,64.1,17.0,30.12,West,271,1.0,3.0,16,0.00,,CLR,0.00,VWS V14.01,2013-03-15 00:43:00,
2013-03-14 18:48:00,64.0,16.9,30.12,West,269,0.0,3.0,16,0.00,,CLR,0.00,VWS V14.01,2013-03-15 00:48:00,
2013-03-14 18:53:00,62.8,20.0,30.11,SE,127,2.0,3.0,19,0.00,,CLR,0.00,VWS V14.01,2013-03-15 00:53:00,
2013-03-14 18:58:00,60.7,19.4,30.11,WSW,249,1.0,3.0,20,0.00,,CLR,0.00,VWS V14.01,2013-03-15 00:58:00,
2013-03-14 19:00:00,60.6,19.3,30.11,SW,235,0.0,3.0,20,0.00,,OVC120,0.00,VWS V14.01,2013-03-15 01:00:00,
2013-03-14 19:03:00,59.9,19.9,30.11,SE,134,0.0,1.0,21,0.00,,CLR,0.00,VWS V14.01,2013-03-15 01:03:00,
2013-03-14 19:08:00,57.8,18.1,30.11,SSE,157,1.0,3.0,21,0.00,,CLR,0.00,VWS V14.01,2013-03-15 01:08:00,
2013-03-14 19:13:00,56.6,19.2,30.11,SE,124,3.0,3.0,23,0.00,,CLR,0.00,VWS V14.01,2013-03-15 01:13:00,
2013-03-14 19:18:00,55.0,17.9,30.11,SE,124,3.0,3.0,23,0.00,,CLR,0.00,VWS V14.01,2013-03-15 01:18:00,
2013-03-14 19:23:00,53.7,18.7,30.11,ESE,122,3.0,4.0,25,0.00,,CLR,0.00,VWS V14.01,2013-03-15 01:23:00,
2013-03-14 19:29:00,52.7,17.9,30.11,SE,127,3.0,4.0,25,0.00,,CLR,0.00,VWS V14.01,2013-03-15 01:29:00,
2013-03-14 19:30:00,52.6,17.8,30.11,SE,141,3.0,4.0,25,0.00,,OVC120,0.00,VWS V14.01,2013-03-15 01:30:00,
2013-03-14 19:34:00,52.3,18.5,30.11,SE,133,3.0,4.0,26,0.00,,CLR,0.00,VWS V14.01,2013-03-15 01:34:00,
2013-03-14 19:39:00,51.7,17.0,30.11,SE,139,3.0,4.0,25,0.00,,CLR,0.00,VWS V14.01,2013-03-15 01:39:00,
2013-03-14 19:44:00,52.0,16.4,30.11,SE,133,3.0,4.0,24,0.00,,CLR,0.00,VWS V14.01,2013-03-15 01:44:00,
2013-03-14 19:49:00,52.3,15.6,30.11,SE,144,3.0,4.0,23,0.00,,CLR,0.00,VWS V14.01,2013-03-15 01:49:00,
2013-03-14 19:54:00,52.6,15.9,30.11,SSE,148,3.0,5.0,23,0.00,,CLR,0.00,VWS V14.01,2013-03-15 01:54:00,
2013-03-14 19:59:00,52.7,16.0,30.11,SE,131,5.0,5.0,23,0.00,,CLR,0.00,VWS V14.01,2013-03-15 01:59:00,
2013-03-14 20:00:00,52.7,16.0,30.11,SE,138,4.0,5.0,23,0.00,,OVC120,0.00,VWS V14.01,2013-03-15 02:00:00,
2013-03-14 20:04:00,53.0,16.2,30.11,SE,124,4.0,6.0,23,0.00,,CLR,0.00,VWS V14.01,2013-03-15 02:04:00,
2013-03-14 20:09:00,53.2,16.4,30.11,SSE,167,6.0,8.0,23,0.00,,CLR,0.00,VWS V14.01,2013-03-15 02:09:00,
2013-03-14 20:14:00,53.2,16.4,30.11,SE,145,4.0,9.0,23,0.00,,CLR,0.00,VWS V14.01,2013-03-15 02:14:00,
2013-03-14 20:19:00,53.0,17.2,30.11,SSE,161,4.0,9.0,24,0.00,,CLR,0.00,VWS V14.01,2013-03-15 02:19:00,
2013-03-14 20:24:00,52.8,16.0,30.12,SE,141,6.0,9.0,23,0.00,,CLR,0.00,VWS V14.01,2013-03-15 02:24:00,
2013-03-14 20:29:00,52.4,16.7,30.12,SE,124,8.0,8.0,24,0.00,,CLR,0.00,VWS V14.01,2013-03-15 02:29:00,
2013-03-14 20:30:00,52.4,16.7,30.12,ESE,122,7.0,9.0,24,0.00,,OVC120,0.00,VWS V14.01,2013-03-15 02:30:00,
2013-03-14 20:34:00,52.4,16.7,30.12,SE,134,10.0,11.0,24,0.00,,CLR,0.00,VWS V14.01,2013-03-15 02:34:00,
2013-03-14 20:39:00,52.2,16.5,30.12,ESE,121,9.0,13.0,24,0.00,,CLR,0.00,VWS V14.01,2013-03-15 02:39:00,
2013-03-14 20:44:00,51.9,16.3,30.12,SE,136,7.0,13.0,24,0.00,,CLR,0.00,VWS V14.01,2013-03-15 02:44:00,
2013-03-14 20:50:00,51.7,17.0,30.12,ESE,107,8.0,13.0,25,0.00,,CLR,0.00,VWS V14.01,2013-03-15 02:50:00,
2013-03-14 20:55:00,51.5,16.9,30.12,ESE,123,5.0,13.0,25,0.00,,CLR,0.00,VWS V14.01,2013-03-15 02:55:00,
2013-03-14 21:00:00,51.3,16.7,30.12,South,174,2.0,3.0,25,0.00,,CLR,0.00,VWS V14.01,2013-03-15 03:00:00,
2013-03-14 21:05:00,50.8,17.2,30.13,West,281,2.0,8.0,26,0.00,,CLR,0.00,VWS V14.01,2013-03-15 03:05:00,
2013-03-14 21:10:00,49.3,17.6,30.13,SE,130,1.0,8.0,28,0.00,,CLR,0.00,VWS V14.01,2013-03-15 03:10:00,
2013-03-14 21:15:00,49.5,17.8,30.13,NNW,330,0.0,8.0,28,0.00,,CLR,0.00,VWS V14.01,2013-03-15 03:15:00,
2013-03-14 21:20:00,48.4,18.4,30.14,SW,236,0.0,8.0,30,0.00,,CLR,0.00,VWS V14.01,2013-03-15 03:20:00,
2013-03-14 21:25:00,47.2,18.1,30.14,SE,146,1.0,8.0,31,0.00,,CLR,0.00,VWS V14.01,2013-03-15 03:25:00,
2013-03-14 21:30:00,46.3,18.1,30.14,SE,139,0.0,0.0,32,0.00,,CLR,0.00,VWS V14.01,2013-03-15 03:30:00,
2013-03-14 21:35:00,46.5,16.8,30.14,SE,145,2.0,5.0,30,0.00,,CLR,0.00,VWS V14.01,2013-03-15 03:35:00,
2013-03-14 21:40:00,48.0,16.5,30.14,SSE,167,2.0,7.0,28,0.00,,CLR,0.00,VWS V14.01,2013-03-15 03:40:00,
2013-03-14 21:45:00,48.4,16.8,30.14,SE,128,0.0,7.0,28,0.00,,CLR,0.00,VWS V14.01,2013-03-15 03:45:00,
2013-03-14 21:50:00,48.3,16.7,30.14,East,99,0.0,7.0,28,0.00,,CLR,0.00,VWS V14.01,2013-03-15 03:50:00,
2013-03-14 21:56:00,47.9,16.4,30.14,ENE,78,0.0,7.0,28,0.00,,CLR,0.00,VWS V14.01,2013-03-15 03:56:00,
2013-03-14 22:00:00,47.3,17.5,30.14,SSW,210,2.0,3.0,30,0.00,,CLR,0.00,VWS V14.01,2013-03-15 04:00:00,
2013-03-14 22:01:00,47.1,18.0,30.14,South,179,2.0,3.0,31,0.00,,CLR,0.00,VWS V14.01,2013-03-15 04:01:00,
2013-03-14 22:03:00,46.4,17.4,30.14,South,181,2.0,3.0,31,0.00,,CLR,0.00,VWS V14.01,2013-03-15 04:03:00,
2013-03-14 22:04:00,46.1,17.9,30.14,South,177,1.0,3.0,32,0.00,,CLR,0.00,VWS V14.01,2013-03-15 04:04:00,
2013-03-14 22:09:00,44.8,17.5,30.15,SW,235,1.0,3.0,33,0.00,,CLR,0.00,VWS V14.01,2013-03-15 04:09:00,
2013-03-14 22:14:00,45.4,16.5,30.15,ESE,122,4.0,6.0,31,0.00,,CLR,0.00,VWS V14.01,2013-03-15 04:14:00,
2013-03-14 22:19:00,46.8,15.4,30.15,ESE,103,3.0,7.0,28,0.00,,CLR,0.00,VWS V14.01,2013-03-15 04:19:00,
2013-03-14 22:24:00,47.7,15.4,30.15,SE,127,6.0,7.0,27,0.00,,CLR,0.00,VWS V14.01,2013-03-15 04:24:00,
2013-03-14 22:29:00,48.0,15.6,30.15,ESE,105,6.0,8.0,27,0.00,,CLR,0.00,VWS V14.01,2013-03-15 04:29:00,
2013-03-14 22:30:00,48.0,15.6,30.15,ESE,105,6.0,8.0,27,0.00,,OVC120,0.00,VWS V14.01,2013-03-15 04:30:00,
2013-03-14 22:34:00,47.4,15.9,30.15,East,91,4.0,8.0,28,0.00,,CLR,0.00,VWS V14.01,2013-03-15 04:34:00,
2013-03-14 22:39:00,46.9,16.3,30.14,East,99,5.0,8.0,29,0.00,,CLR,0.00,VWS V14.01,2013-03-15 04:39:00,
2013-03-14 22:44:00,47.4,15.1,30.14,ESE,115,0.0,8.0,27,0.00,,CLR,0.00,VWS V14.01,2013-03-15 04:44:00,
2013-03-14 22:49:00,47.6,16.1,30.14,SE,144,5.0,8.0,28,0.00,,CLR,0.00,VWS V14.01,2013-03-15 04:49:00,
2013-03-14 22:54:00,47.9,15.6,30.14,South,177,2.0,8.0,27,0.00,,CLR,0.00,VWS V14.01,2013-03-15 04:54:00,
2013-03-14 22:59:00,47.7,16.2,30.14,WSW,256,1.0,2.0,28,0.00,,CLR,0.00,VWS V14.01,2013-03-15 04:59:00,
2013-03-14 23:00:00,47.7,16.2,30.14,WSW,255,2.0,8.0,28,0.00,,OVC120,0.00,VWS V14.01,2013-03-15 05:00:00,
2013-03-14 23:04:00,46.7,16.1,30.14,NW,322,0.0,2.0,29,0.00,,CLR,0.00,VWS V14.01,2013-03-15 05:04:00,
2013-03-14 23:09:00,46.1,15.6,30.14,ENE,74,0.0,2.0,29,0.00,,CLR,0.00,VWS V14.01,2013-03-15 05:09:00,
2013-03-14 23:14:00,46.0,16.3,30.14,SE,128,0.0,3.0,30,0.00,,CLR,0.00,VWS V14.01,2013-03-15 05:14:00,
2013-03-14 23:19:00,45.1,16.3,30.14,WSW,238,0.0,3.0,31,0.00,,CLR,0.00,VWS V14.01,2013-03-15 05:19:00,
2013-03-14 23:25:00,44.3,15.6,30.14,South,174,0.0,3.0,31,0.00,,CLR,0.00,VWS V14.01,2013-03-15 05:25:00,
2013-03-14 23:30:00,44.1,16.1,30.14,WNW,295,0.0,0.0,32,0.00,,CLR,0.00,VWS V14.01,2013-03-15 05:30:00,
2013-03-14 23:35:00,43.5,16.3,30.15,WNW,295,0.0,1.0,33,0.00,,CLR,0.00,VWS V14.01,2013-03-15 05:35:00,
2013-03-14 23:40:00,43.0,15.9,30.14,NNW,340,0.0,1.0,33,0.00,,CLR,0.00,VWS V14.01,2013-03-15 05:40:00,
2013-03-14 23:45:00,42.8,17.1,30.14,WNW,285,0.0,1.0,35,0.00,,CLR,0.00,VWS V14.01,2013-03-15 05:45:00,
2013-03-14 23:50:00,42.7,17.0,30.14,WNW,285,0.0,1.0,35,0.00,,CLR,0.00,VWS V14.01,2013-03-15 05:50:00,
2013-03-14 23:56:00,42.3,16.6,30.14,SSW,197,0.0,1.0,35,0.00,,CLR,0.00,VWS V14.01,2013-03-15 05:56:00,